Weather History for EINN - October, 2012

Change the Weather History Date:

Saturday, October 13, 2012

  Actual Average Record
Temperature  
Mean Temperature 48 °F -  
Max Temperature 54 °F 55 °F 66 °F (2003)
Min Temperature 42 °F 43 °F 33 °F (2005)
Degree Days  
Heating Degree Days 17    
Moisture  
Dew Point 43 °F    
Average Humidity 87    
Maximum Humidity 100    
Minimum Humidity 72    
Precipitation  
Precipitation 0.04 in 0.12 in - ()
Sea Level Pressure  
Sea Level Pressure 29.71 in    
Wind  
Wind Speed 6 mph ()    
Max Wind Speed 13 mph    
Max Gust Speed -    
Visibility 6.6 miles    
Events Fog , Rain    
Averages and records for this station are not official NWS values.
T = Trace of Precipitation, MM = Missing Value Source: Averaged Metar Reports

Daily Weather History Graph

Daily Weather History Graph

Search for Another Location

Airport or City:

Trip Planner

Search our weather history database for the weather conditions in past years. The results will help you decide how hot, cold, wet, or windy it might be!

Date:

Astronomy

Oct. 13, 2012 Rise Set
Actual Time 7:58 AM IST 6:44 PM IST
Civil Twilight 7:23 AM IST 7:18 PM IST
Nautical Twilight 6:44 AM IST 7:58 PM IST
Astronomical Twilight 6:04 AM IST 8:38 PM IST
Moon 5:19 AM IST (10/13) 5:29 PM IST (10/13)
Length of Visible Light 11h 54m
Length of Day
10h 45m
Waning Crescent, 6% of the Moon is Illuminated
Oct 13
Waning Crescent
Oct 15
New
Oct 22
First Quarter
Oct 29
Full
Nov 7
Last Quarter

Hourly Weather History & Observations

Time (IST) Temp. Windchill Dew Point Humidity Pressure Visibility Wind Dir Wind Speed Gust Speed Precip Events Conditions
12:00 AM 44.6 °F 43.1 °F 42.8 °F 93% 29.71 in 6.2 mi WSW 3.5 mph - N/A   Mostly Cloudy
12:30 AM 42.8 °F 41.1 °F 41.0 °F 93% 29.71 in 6.2 mi WSW 3.5 mph - N/A   Scattered Clouds
1:00 AM 43 °F - 42 °F 92% 29.73 in 12 mi WNW 4.5 mph - - Rain Light Rain Showers
1:00 AM 42.8 °F 41.1 °F 41.0 °F 93% 29.71 in 6.2 mi WNW 3.5 mph - N/A   Mostly Cloudy
1:30 AM 42.8 °F 40.1 °F 42.8 °F 100% 29.71 in 6.2 mi West 4.6 mph - N/A Rain Light Rain Showers
2:00 AM 44.6 °F 42.2 °F 41.0 °F 87% 29.71 in 6.2 mi WSW 4.6 mph - N/A   Mostly Cloudy
2:30 AM 42.8 °F 38.0 °F 41.0 °F 93% 29.71 in 6.2 mi SW 8.1 mph - N/A   Scattered Clouds
3:00 AM 44.6 °F 38.4 °F 42.8 °F 93% 29.71 in 6.2 mi West 12.7 mph - N/A Rain Light Rain Showers
4:00 AM 42.8 °F 39.3 °F 41.0 °F 93% 29.71 in 6.2 mi West 5.8 mph - N/A   Mostly Cloudy
4:30 AM 44.6 °F 40.2 °F 42.8 °F 93% 29.71 in 6.2 mi West 8.1 mph - N/A   Mostly Cloudy
5:00 AM 44.6 °F 39.2 °F 42.8 °F 93% 29.71 in 6.2 mi West 10.4 mph - N/A   Scattered Clouds
5:30 AM 44.6 °F 40.2 °F 41.0 °F 87% 29.71 in 6.2 mi West 8.1 mph - N/A   Scattered Clouds
6:00 AM 44.6 °F 39.7 °F 41.0 °F 87% 29.71 in 6.2 mi WNW 9.2 mph - N/A   Scattered Clouds
6:30 AM 44.6 °F 41.4 °F 41.0 °F 87% 29.71 in 6.2 mi West 5.8 mph - N/A   Mostly Cloudy
7:00 AM 44 °F - 41 °F 84% 29.74 in 16 mi West 6.7 mph - - Rain Light Rain Showers
7:00 AM 44.6 °F 40.7 °F 41.0 °F 87% 29.71 in 6.2 mi West 6.9 mph - N/A   Scattered Clouds
7:30 AM 44.6 °F 40.7 °F 41.0 °F 87% 29.71 in 6.2 mi West 6.9 mph - N/A   Partly Cloudy
8:00 AM 44.6 °F 41.4 °F 41.0 °F 87% 29.71 in 6.2 mi West 5.8 mph - N/A   Partly Cloudy
8:30 AM 44.6 °F 40.7 °F 42.8 °F 93% 29.74 in 6.2 mi West 6.9 mph - N/A Rain Light Rain Showers
9:00 AM 48.2 °F - 44.6 °F 87% 29.74 in 6.2 mi West 9.2 mph - N/A   Scattered Clouds
9:30 AM 48.2 °F - 44.6 °F 87% 29.74 in 6.2 mi West 9.2 mph - N/A   Scattered Clouds
10:00 AM 46.4 °F 45.2 °F 44.6 °F 93% 29.74 in 6.2 mi West 3.5 mph - N/A Rain Light Rain Showers
10:30 AM 48.2 °F - 44.6 °F 87% 29.74 in 6.2 mi WSW 8.1 mph - N/A   Partly Cloudy
11:00 AM 50.0 °F - 44.6 °F 82% 29.74 in 6.2 mi West 11.5 mph - N/A   Partly Cloudy
11:30 AM 51.8 °F - 46.4 °F 82% 29.74 in 6.2 mi West 10.4 mph - N/A   Scattered Clouds
12:00 PM 51.8 °F - 46.4 °F 82% 29.74 in 6.2 mi West 8.1 mph - N/A   Scattered Clouds
12:30 PM 51.8 °F - 46.4 °F 82% 29.74 in 6.2 mi WSW 9.2 mph - N/A   Scattered Clouds
1:00 PM 52 °F - 46 °F 72% 29.74 in 25 mi WSW 11.2 mph - - Rain Light Rain Showers
1:00 PM 51.8 °F - 46.4 °F 82% 29.74 in 6.2 mi WSW 11.5 mph - N/A   Scattered Clouds
1:30 PM 53.6 °F - 44.6 °F 72% 29.71 in 6.2 mi WSW 10.4 mph - N/A   Partly Cloudy
2:00 PM 53.6 °F - 44.6 °F 72% 29.71 in 6.2 mi West 10.4 mph - N/A   Scattered Clouds
2:30 PM 50.0 °F - 44.6 °F 82% 29.71 in 6.2 mi West 10.4 mph - N/A Rain Light Rain Showers
3:00 PM 50.0 °F - 44.6 °F 82% 29.71 in 6.2 mi West 5.8 mph - N/A   Scattered Clouds
3:30 PM 51.8 °F - 46.4 °F 82% 29.71 in 6.2 mi West 6.9 mph - N/A   Scattered Clouds
4:00 PM 53.6 °F - 46.4 °F 77% 29.71 in 6.2 mi WNW 8.1 mph - N/A   Partly Cloudy
4:30 PM 53.6 °F - 44.6 °F 72% 29.71 in 6.2 mi West 10.4 mph - N/A   Partly Cloudy
5:00 PM 51.8 °F - 44.6 °F 76% 29.71 in 6.2 mi West 10.4 mph - N/A   Partly Cloudy
5:30 PM 51.8 °F - 44.6 °F 76% 29.68 in 6.2 mi West 12.7 mph - N/A   Partly Cloudy
6:00 PM 50.0 °F - 42.8 °F 76% 29.68 in 6.2 mi West 9.2 mph - N/A   Partly Cloudy
6:30 PM 50.0 °F - 44.6 °F 82% 29.68 in 6.2 mi West 10.4 mph - N/A   Scattered Clouds
7:00 PM 47 °F - 43 °F 79% 29.70 in 9 mi West 6.7 mph - - Rain Light Rain Showers
7:00 PM 48.2 °F - 42.8 °F 82% 29.68 in 6.2 mi West 5.8 mph - N/A   Mostly Cloudy
7:30 PM 46.4 °F 43.5 °F 44.6 °F 93% 29.68 in 6.2 mi West 5.8 mph - N/A   Mostly Cloudy
8:00 PM 46.4 °F 43.5 °F 44.6 °F 93% 29.68 in 6.2 mi West 5.8 mph - N/A   Mostly Cloudy
8:30 PM 46.4 °F - 42.8 °F 87% 29.68 in 6.2 mi WSW 2.3 mph - N/A   Mostly Cloudy
9:00 PM 44.6 °F - 42.8 °F 93% 29.68 in 6.2 mi WNW 2.3 mph - N/A   Scattered Clouds
9:30 PM 44.6 °F - 42.8 °F 93% 29.68 in 6.2 mi SSW 1.2 mph - N/A   Scattered Clouds
10:00 PM 42.8 °F - 42.8 °F 100% 29.68 in 6.2 mi South 2.3 mph - N/A   Scattered Clouds
10:30 PM 44.6 °F 40.7 °F 42.8 °F 93% 29.68 in 6.2 mi SW 6.9 mph - N/A Rain Light Rain Showers
11:00 PM 44.6 °F - 44.6 °F 100% 29.65 in 6.2 mi SSE 2.3 mph - N/A   Partly Cloudy
11:30 PM 44.6 °F - 42.8 °F 93% 29.65 in 6.2 mi SE 1.2 mph - N/A Fog Shallow Fog